Orbital Elements at Epoch 2459000.5 (2020-May-31.0) TDB
Reference: JPL 14 (heliocentric ecliptic J2000)
Element | Value | Uncertainty (1-sigma) | Units |
e | .07571552408279489 | 5.5739e-08 | |
a | 2.722025032301327 | 1.4276e-08 | au |
q | 2.515925480414146 | 1.4739e-07 | au |
i | 4.869842404477269 | 6.4366e-06 | deg |
node | 356.7715590158099 | 4.4139e-05 | deg |
peri | 349.537874928045 | 5.4343e-05 | deg |
M | 7.071705689299876 | 2.9727e-05 | deg |
tp | 2458968.277570949148 (2020-Apr-28.77757095) | 0.00013546 | TDB |
period | 1640.350287181601 4.49 | 1.2905e-05 3.533e-08 | d yr |
n | .2194653195803323 | 1.7266e-09 | deg/d |
Q | 2.928124584188509 | 1.5357e-08 | au |
|
| | Orbit Determination Parameters
Additional Information
|